Regional Weather Roundup
Issued by NWS

Home | Current Version | Previous Version | Graphics & Text | Print | Product List | Glossary Off
Versions: 1 2 3 4 5 6 7 8 9 10 11 12 13 14 15 16 17 18 19 20 21 22 23 24 25 26 27 28 29 30 31 32 33 34 35 36 37 38 39 40 41 42 43 44 45 46 47 48 49 50

119
ASUS43 KMKX 232311
RWRWI

WISCONSIN REGIONAL WEATHER ROUNDUP
NATIONAL WEATHER SERVICE MILWAUKEE/SULLIVAN WI
600 PM CDT SAT JUL 23 2016

NOTE: "FAIR" INDICATES FEW OR NO CLOUDS BELOW 12,000 FEET WITH NO
SIGNIFICANT WEATHER AND/OR OBSTRUCTIONS TO VISIBILITY.

WIZ001-002-006>008-014>016-023>028-240000-
NORTHWEST WISCONSIN

CITY           SKY/WX    TMP DP  RH WIND       PRES   REMARKS
SUPERIOR ARPT  CLOUDY    65  61  86 NE13      29.86F
ASHLAND        CLOUDY    71  66  84 CALM      29.87F
HAYWARD        RAIN      72  69  90 SE3       29.88F
SIREN          CLOUDY    72  68  88 S3        29.86F
CUMBERLAND     LGT RAIN  70  68  94 SE10      29.86F
RICE LAKE      HVY RAIN  72  69  92 SE10      29.89S
CHETEK         LGT RAIN  71  70  96 CALM      29.89S
LADYSMITH      RAIN      74  70  89 SE5       29.92R
EAU CLAIRE     CLOUDY    73  68  84 SE12      29.86R
MENOMONIE      LGT RAIN  73  73  97 SE3       29.86R
NEW RICHMOND   CLOUDY    72  72 100 E7        29.85F
OSCEOLA        LGT RAIN  74  74 100 SE6       29.85F
$$

WIZ003>005-009-010-017-018-240000-
NORTH CENTRAL WISCONSIN

CITY           SKY/WX    TMP DP  RH WIND       PRES   REMARKS
MANITOWISH WTR LGT RAIN  76  70  81 S5        29.91F
ARBOR VITAE    DRIZZLE   77  72  84 S3        29.92F
WOODRUFF       DRIZZLE   77  72  84 S3        29.92F
RHINELANDER    LGT RAIN  75  70  84 SE5       29.93F
EAGLE RIVER    CLOUDY    77  61  58 SE5       29.93F
LAND O LAKES   CLOUDY    78  63  58 SE3       29.94F HX  80
PHILLIPS       CLOUDY    73  71  96 CALM      29.90F
TOMAHAWK       CLOUDY    73  70  92 SE3       29.93S
MEDFORD        CLOUDY    71  71 100 S10       29.91R
MERRILL        CLOUDY    75  72  89 S3        29.92S
$$

WIZ029-030-035-036-043>047-240000-
CENTRAL WISCONSIN

CITY           SKY/WX    TMP DP  RH WIND       PRES   REMARKS
WAUSAU         CLOUDY    74  68  81 S10       29.90F
MOSINEE        LGT RAIN  72  70  94 SE9       29.92F
MARSHFIELD     LGT RAIN  71  67  87 S8        29.90F
STEVENS POINT  LGT RAIN  69  67  93 S6        29.91F
WAUPACA        LGT RAIN  76  75  95 SW3       29.93F
WAUTOMA        LGT RAIN  73  71  93 SW3       29.95
WISC RAPIDS    LGT RAIN  71  66  84 S9        29.92F
CAMP DOUGLAS   CLOUDY    70  70 100 SE8       29.92F
$$

WIZ011>013-019>022-031-037>040-048>050-240000-
NORTHEAST WISCONSIN

CITY           SKY/WX    TMP DP  RH WIND       PRES   REMARKS
ANTIGO         CLOUDY    76  72  87 CALM      29.94F
SHAWANO        CLOUDY    82  71  68 S3        29.92F HX  86
OCONTO         CLOUDY    78  72  79 SE5       29.91F HX  81
STURGEON BAY   CLOUDY    78  65  63 SE7       29.94F HX  80
GREEN BAY      CLOUDY    79  69  71 S7        29.93F HX  81
MANITOWOC      CLOUDY    73  67  81 VRB5      29.94F
APPLETON       LGT RAIN  81  70  69 VRB5      29.93F HX  84
CLINTONVILLE   CLOUDY    81  72  74 S5        29.92F HX  84
OSHKOSH        LGT RAIN  77  72  84 W6        29.93F
$$

WIZ032>034-041-042-053>061-240000-
SOUTHWEST WISCONSIN

CITY           SKY/WX    TMP DP  RH WIND       PRES   REMARKS
LA CROSSE      LGT RAIN  73  68  84 SE14      29.86F
SPARTA         LGT RAIN  69  68  96 SE7       29.89
VIROQUA        CLOUDY    68  68 100 SE9       29.93F
BOSCOBEL       LGT RAIN  71  69  93 NE3       29.91F
PRAIRIE DU CHI LGT RAIN  70  68  95 E3        29.89F
PLATTEVILLE    CLOUDY    70  70 100 NE12G22   29.95F VSB 1/2
$$

WIZ056-057-062-063-064-067-068-240000-
SOUTH CENTRAL WISCONSIN

CITY           SKY/WX    TMP DP  RH WIND       PRES   REMARKS
REEDSBURG      RAIN      70  70 100 E3        29.94F
BARABOO/DELLS  TSTM      72  69  93 W5        29.97F
LONE ROCK      TSTM      71  69  93 E9        29.93F FOG
MINERAL POINT  HVY RAIN  70  70 100 N5        29.99R
MADISON        LGT RAIN  73  71  93 NW3       29.94S
MIDDLETON      CLOUDY    73  73  99 CALM      29.95F
WATERTOWN      CLOUDY    73  73 100 CALM      29.94F
MONROE         CLOUDY    73  70  88 E9        29.93F
JANESVILLE     CLOUDY    73  73 100 E9        29.94F
$$

WIZ051-052-058>065-066-070>072-240000-
SOUTHEAST WISCONSIN

CITY           SKY/WX    TMP DP  RH WIND       PRES   REMARKS
MILWAUKEE      LGT RAIN  75  70  84 SE6       29.95F
WAUKESHA       LGT RAIN  72  70  94 E5        29.96F
MILWAUKEE/TIMM LGT RAIN  75  70  83 SE5       29.94F
RACINE         CLOUDY    73  70  90 CALM      29.96S
BURLINGTON     CLOUDY    73  70  91 CALM      29.97R
KENOSHA        TSTM      72  67  84 SE10      29.96F
FOND DU LAC    CLOUDY    77  73  87 CALM      29.93F
SHEBOYGAN      LGT RAIN  77  74  90 SE5       29.93F
WEST BEND      CLOUDY    73  68  83 CALM      29.92F
JUNEAU         CLOUDY    72  71  96 W3        29.95F
$$

LSZ147-162-240000-
LAKE SUPERIOR

STATION/POSITION TIME  TEMP    WIND        PRES    WAVE
                       AIR SEA DIR/SP/G            HT/PER
                 (UTC) (F)     (DEG/KT/KT) (MB)    (FT/S)
W MID LAKE BUOY  2250   61 58   60/ 14/ 16 1011.2F   2/ 4
DEVILS ISLAND    2300   63      20/  9/ 10 1011.5F
PORT WING        2200   64      30/ 11/ 14 1012.2S
SAXON HARBOR     2200   71     320/  4/  6 1011.9S
$$

LMZ867-665-643>646-240000-
LAKE MICHIGAN

STATION/POSITION TIME  TEMP    WIND        PRES    WAVE
                       AIR SEA DIR/SP/G            HT/PER
                 (UTC) (F)     (DEG/KT/KT) (MB)    (FT/S)
CHAMBERS ISLAND  2200   81     160/  2/  4 1014.2F
S GREEN BAY BUOY 2200   78 76  120/  6/  6   N/A
N MID LAKE BUOY  2250   74 73  230/  2/  2 1013.7F   0
NORTHPORT PIER   2200   78     150/  4/  5 1014.6R
KEWAUNEE LAKESHO 2200           CALM  /  2   N/A
SHEBOYGAN LAKESH 2300   72     160/ 10/ 10 1013.4F
PORT WASHINGTON  2200   77     260/  6/ 16 1015.9
MILWAUKEE LAKESH 2210   70     110/  5/  5   N/A
S MID LAKE BUOY  2250   77 77   30/  6/  8 1013.7F   0
KENOSHA   LAKESH 2300   71     190/  9/ 10 1013.5F
$$

TC  - TEMPERATURE IN CELSIUS
VSB - VISIBILITY IN STATUTE MILES
WCI - WIND CHILL INDEX
HX  - HEAT INDEX





USA.gov is the U.S. government's official web portal to all federal, state and local government web resources and services.